Regional Weather Roundup
Issued by NWS Lake Charles, LA

Current Version | Previous Version | Text Only | Print | Product List | Glossary On
Versions: 1 2 3 4 5 6 7 8 9 10 11 12 13 14 15 16 17 18 19 20 21 22 23 24 25 26 27 28 29 30 31 32 33 34 35 36 37 38 39 40 41 42 43 44 45 46 47 48 49 50
308
ASUS44 KLCH 261710
RWRLCH
REGIONAL WEATHER ROUNDUP
NATIONAL WEATHER SERVICE LAKE CHARLES LA
1200 PM CDT WED APR 26 2017

Note: "fair" indicates few or no clouds below 12,000 feet with no
significant weather and/or obstructions to visibility.


ACROSS SOUTHEAST TEXAS

CITY           SKY/WX    TMP DP  RH WIND       PRES   REMARKS
BEAUMONT       CLOUDY    78  70  76 S13       29.64R
BEAUMONT CITY  DRIZZLE   79  71  77 S6        29.63S
ORANGE         CLOUDY    77  72  82 S12       29.67R
JASPER           N/A     79  73  81 S13G20    29.62F
$$

ACROSS CENTRAL LOUISIANA

CITY           SKY/WX    TMP DP  RH WIND       PRES   REMARKS
LEESVILLE      CLOUDY    77  68  73 S12       29.64F
FULLERTON      LGT RAIN  76  69  79 S3        29.63R
ALEXANDRIA INT CLOUDY    78  66  66 SW9       29.64R
ESLER FIELD    CLOUDY    79  66  64 S9        29.66R
DERIDDER       RAIN      75  72  91 S9        29.67S
OAKDALE        CLOUDY    80  67  65 S9G20     29.64R
OPELOUSAS      PTSUNNY   82  66  59 S23G30    29.64S
$$

ACROSS SOUTHWEST AND SOUTH CENTRAL LOUISIANA

CITY           SKY/WX    TMP DP  RH WIND       PRES   REMARKS
SULPHUR        CLOUDY    78  70  75 S17G23    29.66R
LAKE CHARLES   CLOUDY    80  69  69 S16G24    29.64R
CHENNAULT INT  CLOUDY    79  70  73 S18G25    29.65R
CAMERON PHI      N/A     77  72  83 SE17G24   29.62R HAZE
DEQUINCY       CLOUDY    76  68  78 S7        29.66R
JENNINGS       CLOUDY    80  69  68 S10G30    29.62F
LAFAYETTE      PTSUNNY   83  69  62 S14G26    29.66S
NEW IBERIA     LGT RAIN  82  67  60 S21G32    29.67R
ABBEVILLE      CLOUDY    79  72  78 SE18G26   29.67S
PATTERSON      CLOUDY    79  69  71 S16G28    29.68F
SALT POINT       N/A     79  70  74 SE12G22   29.66F
$$

SELECTED SITES ACROSS THE REGION

CITY           SKY/WX    TMP DP  RH WIND       PRES   REMARKS
HOUSTON BUSH   CLOUDY    83  70  64 S12G20    29.58S
HOUSTON HOBBY  MOSUNNY   82  72  71 S15G21    29.57F
GALVESTON      CLOUDY    79  74  84 S9        29.63R HAZE
COLLEGE STAT   PTSUNNY   85  70  60 SW14G23   29.54R
CONROE         PTSUNNY   82  69  64 S14       29.57S
HUNTSVILLE     MOSUNNY   83  69  62 S13G21    29.55S
LUFKIN         PTSUNNY   81  69  67 S12G21    29.55S
SHREVEPORT     PTSUNNY   79  70  74 S21G29    29.52F
MONROE         CLOUDY    74  67  78 SE5       29.65R
NATCHEZ MS     PTSUNNY   79  66  64 S18       29.66R
BATON ROUGE    MOSUNNY   83  66  56 SE17      29.67F
N.O. INTL ARPT PTSUNNY   80  66  62 S17G30    29.72F
SLIDELL        CLOUDY    78  66  66 S18G26    29.74F
$$

MARINE REPORTS

STATION/POSITION TIME  SKY/WX   TEMP    WIND        PRES    VSBY
                                AIR SEA DIR/SP/G
                 (UTC)          (F)     (DEG/KT/KT) (MB)    (MI)
BUOY 30 S HIGH I 1650            76 76  170/ 12/ 16 1002.0R
WVE H/P(F/S)=  5/ 8

SEA RIM ST PARK  1600            76     160/ 12/ 17 1002.8R
PORT ARTHUR      1642            76 75  180/  6/ 11 1003.9R
SABINE PASS N    1642            77 77  160/ 15/ 19 1004.5R
TEXAS POINT      NOT AVBL
CALCASIEU PASS   1642            76 75  170/ 14/ 22   N/A
LK CHARLES BEACH 1642            78 74              1003.9R
MARSH ISLAND     1600            75                   N/A
FRESH WATER LOCK 1642            77 73  130/ 14/ 22 1003.8F
AMERADA PASS     1642            78 71  140/ 10/ 19 1004.7F
$$




USA.gov is the U.S. government's official web portal to all federal, state and local government web resources and services.